Location: Newark
(8.3667°S, 17.0167°E)
Time: 00:31:50
(UTC+00:00)

N. Korean satellite - Pass Details

Date: 22 November 2019
Orbit: 456 x 506 km, 97.2° (Epoch: 07 December)

Event Time Altitude Azimuth Distance (km) Brightness Sun altitude
Rises 03:31:47 0° 42° (NE) 2,526 10.5 -12.4°
Reaches altitude 10° 03:34:32 10° 66° (ENE) 1,642 9.9 -11.8°
Maximum altitude 03:36:37 15° 103° (ESE) 1,356 10.1 -11.3°
Drops below altitude 10° 03:38:41 10° 139° (SE) 1,634 10.3 -10.8°
Sets 03:41:24 0° 163° (SSE) 2,506 10.8 -10.2°
